Dewpoint
69 71 74 73 72 71 71 71 74 75 74 74 73 73 73 73 71 70 69 70 71 71 71 69 70 71 70 68 68 69 70 69 70 69 69 70 70 70 70 70 70 68 69
70 71 73 73 72 71 71 72 73 75 74 74 74 72 72 73 71 71 70 71 71 71 70 68 70 69 69 67 69 69 69 68 68 69 68 68 69 69 70 70 70 68 70
70 71 72 73 73 72 72 72 73 74 74 73 73 72 72 72 71 71 70 71 71 69 68 68 68 68 67 67 69 69 68 67 66 67 67 64 66 69 70 69 70 70 70
70 71 71 73 73 72 72 72 72 73 74 74 73 73 73 71 72 72 71 71 70 68 68 67 67 68 68 68 67 65 62 64 67 64 59 61 63 67 68 69 69 68 69
70 70 71 73 73 72 72 73 72 72 74 74 73 73 73 72 72 71 72 72 71 70 69 67 66 65 65 64 62 62 64 66 65 62 59 60 61 65 67 67 67 67 67
69 69 72 73 73 73 73 73 73 72 73 74 73 73 72 72 72 71 72 71 71 70 69 68 65 65 64 63 63 64 64 65 63 60 61 63 61 63 63 63 63 64 63
68 69 71 72 73 73 73 73 73 73 72 73 73 72 72 72 71 72 71 70 71 70 68 66 65 65 65 64 63 63 64 65 59 61 61 61 61 64 64 63 63 62 62
69 69 70 71 72 72 73 72 73 72 73 72 72 72 72 71 71 71 70 70 70 69 68 67 67 66 65 64 63 63 64 64 60 61 62 63 66 64 64 64 63 63 63
67 67 65 67 70 71 72 72 72 72 72 72 71 71 71 70 70 69 67 70 70 70 70 69 68 67 66 65 64 64 64 64 59 61 61 62 66 64 64 64 63 63 63
63 62 63 62 61 63 69 70 70 70 71 71 70 69 69 67 67 66 66 68 70 70 70 69 68 68 67 66 65 65 64 63 59 61 62 63 65 63 63 62 62 62 62
62 62 62 62 61 61 61 68 69 69 70 69 69 67 66 64 64 64 64 67 68 69 69 68 67 67 66 65 64 63 63 59 58 61 62 66 65 63 63 62 62 61 61
59 61 62 62 61 61 59 61 67 68 68 68 67 65 63 64 63 62 65 66 68 69 68 68 66 66 63 59 59 61 57 56 54 60 62 67 66 65 65 65 64 63 62
58 60 61 61 62 61 61 60 62 67 68 67 65 63 63 63 63 65 66 66 67 65 66 66 65 61 59 57 56 54 53 54 54 59 62 65 65 64 65 66 66 66 66
58 59 60 61 61 61 61 59 59 66 67 66 64 62 62 62 64 64 64 65 65 64 63 63 62 59 57 55 55 55 54 54 56 57 61 64 66 64 64 65 65 66 66
58 59 59 60 60 61 60 60 62 65 67 66 65 63 61 62 63 63 63 63 63 63 62 61 60 58 56 54 54 55 55 55 55 57 57 62 64 65 64 64 64 65 65
58 59 60 61 60 61 61 62 62 62 66 66 65 64 59 61 62 62 62 62 62 61 61 59 57 54 53 52 54 56 56 56 56 56 56 58 63 64 66 65 65 65 64
59 59 59 61 63 63 63 65 64 58 61 62 61 61 60 60 60 60 61 60 60 58 56 56 54 55 56 56 56 56 56 56 57 56 58 57 60 62 64 65 65 64 64
60 60 60 62 64 63 64 64 64 61 57 59 58 58 59 58 57 58 58 58 58 58 58 57 57 56 57 56 57 57 57 57 57 57 56 58 60 59 62 64 65 64 63
59 60 60 62 62 62 62 64 64 63 61 57 58 57 57 57 57 60 60 61 60 59 59 58 57 56 55 55 56 57 58 58 58 54 54 56 57 57 58 62 62 62 62
59 60 61 61 60 61 61 62 64 63 63 64 60 59 59 60 60 62 62 62 61 60 59 59 57 56 54 54 56 56 58 58 56 55 53 55 56 57 57 58 60 61 62
59 59 59 60 59 60 60 61 62 62 62 63 64 62 62 62 62 63 63 63 62 61 60 59 58 56 55 58 58 58 57 56 55 54 53 54 56 56 56 59 60 59 59
59 59 59 59 60 60 60 62 62 62 62 63 63 64 65 63 64 64 63 63 62 62 60 59 57 57 57 60 57 55 53 52 54 54 53 52 54 55 56 57 59 58 57
58 59 60 60 61 61 61 62 62 61 62 62 63 62 63 64 65 64 64 64 63 63 62 61 60 59 59 59 59 57 52 49 52 54 53 52 52 54 55 56 56 55 55
58 60 60 61 60 61 61 61 60 59 59 60 61 62 63 63 64 64 64 63 63 62 61 62 62 61 60 58 59 58 56 53 47 48 52 52 51 53 53 54 55 53 52
59 59 60 60 61 61 61 61 60 58 60 60 61 61 61 62 62 62 63 62 62 62 61 61 60 59 59 59 57 56 53 52 53 49 46 50 52 52 52 51 53 52 52
59 59 59 59 60 60 61 61 60 59 59 59 60 60 61 60 61 61 62 62 61 61 60 59 59 58 58 57 55 54 52 49 48 49 48 47 49 49 51 51 51 51 50
Lifted_Index
-3 -3 -4 -3 -3 -2 -2 -2 -3 -3 -3 -3 -2 -1 -1 -0 0 1 2 2 1 1 2 2 2 2 3 3 3 3 2 3 3 3 2 2 1 1 1 1 0 0 0
-3 -4 -4 -3 -3 -2 -2 -2 -2 -3 -3 -3 -2 -1 -1 -0 0 1 1 1 1 2 2 3 2 2 3 3 3 3 3 3 3 3 3 3 2 1 1 0 0 0 0
-3 -4 -4 -4 -3 -3 -2 -2 -2 -3 -3 -3 -2 -2 -1 -0 0 1 1 1 2 2 3 3 3 3 4 4 3 3 4 4 4 4 4 4 3 2 1 0 0 0 0
-4 -4 -4 -4 -4 -3 -3 -3 -2 -3 -3 -3 -2 -2 -1 -0 0 0 1 1 2 3 4 4 4 4 4 4 5 5 5 5 5 6 6 5 4 2 1 1 1 1 1
-3 -4 -5 -5 -4 -4 -3 -3 -3 -3 -3 -3 -3 -2 -1 -1 -0 0 0 1 2 3 3 4 5 5 5 6 6 6 6 6 6 6 6 5 4 3 3 2 2 2 2
-3 -4 -4 -5 -4 -4 -4 -4 -3 -3 -3 -3 -3 -2 -1 -1 -0 0 0 1 2 2 3 4 5 6 6 6 6 6 6 6 6 6 6 5 5 4 4 4 4 4 4
-3 -3 -4 -4 -4 -4 -4 -4 -4 -3 -3 -3 -3 -2 -1 -1 -0 0 1 1 2 2 3 4 5 5 6 6 6 6 6 6 6 6 6 5 5 4 4 4 4 4 4
-3 -3 -3 -4 -4 -4 -4 -4 -4 -3 -3 -3 -2 -2 -1 -1 -0 1 2 2 2 2 3 4 4 5 5 5 6 6 6 6 5 5 5 5 4 4 4 4 4 4 4
-2 -2 -2 -3 -3 -3 -4 -4 -3 -3 -3 -3 -2 -2 -1 -0 1 2 2 2 2 2 2 3 3 4 4 5 6 6 6 6 5 5 5 4 4 4 4 4 4 4 4
-2 -2 -2 -2 -2 -2 -3 -3 -3 -3 -3 -2 -2 -1 -0 1 2 3 3 3 2 2 2 2 3 3 4 5 6 6 6 6 5 5 5 4 4 4 4 4 4 4 4
-0 -1 -1 -2 -1 -1 -1 -2 -2 -2 -2 -2 -1 -1 -0 1 2 3 3 3 2 2 2 3 3 4 5 6 7 7 7 6 6 5 5 4 3 3 3 3 3 3 4
1 1 -0 -1 -1 -0 0 0 -0 -1 -1 -1 -1 -1 -0 1 2 3 3 2 2 2 3 3 4 5 6 7 8 7 7 7 6 6 5 4 3 2 2 2 2 3 3
3 2 1 1 1 1 2 2 2 0 -1 -1 -1 -1 0 1 2 2 2 2 2 3 3 4 5 6 7 8 7 7 7 7 6 6 5 4 3 3 2 2 1 1 1
5 4 4 3 3 3 3 3 3 1 -0 -1 -1 -0 0 2 2 2 2 2 2 3 3 4 5 7 7 7 7 6 6 6 6 5 5 5 4 3 2 2 1 1 1
5 5 5 5 5 5 4 4 3 1 -0 -1 -0 0 1 2 2 2 2 2 3 3 3 4 6 6 7 7 6 6 5 5 5 5 4 4 4 4 3 2 2 1 1
5 5 5 5 5 5 4 3 3 1 0 -0 0 1 2 2 2 2 3 3 3 3 4 5 5 6 6 6 5 5 4 4 4 4 4 4 4 4 3 2 2 1 1
4 4 3 3 3 3 3 2 2 2 1 1 1 2 2 2 2 2 3 3 3 4 4 5 5 5 5 5 4 4 3 3 3 3 3 3 3 3 3 2 1 1 1
3 2 2 1 1 1 2 2 2 2 2 1 2 2 2 1 1 2 3 3 3 4 4 4 5 4 4 4 3 3 3 2 2 2 3 3 3 3 3 2 2 2 2
2 1 1 -0 0 1 2 2 2 2 2 1 1 2 1 1 2 2 2 3 3 3 4 4 4 4 3 3 3 2 2 1 1 2 2 3 3 3 3 3 2 2 2
1 1 0 0 1 2 3 2 2 2 1 1 1 1 1 2 2 2 2 2 2 2 3 3 3 3 3 3 2 1 1 0 1 1 2 2 3 3 3 3 3 3 3
1 1 1 0 1 2 3 2 2 1 1 1 1 1 1 1 1 1 1 1 1 1 2 2 2 2 2 2 1 0 -0 0 1 1 1 2 3 4 4 3 3 3 3
0 0 0 0 1 2 2 2 2 2 1 1 1 1 1 1 1 0 -0 -0 0 0 1 1 1 1 1 0 -0 -1 -0 0 0 1 2 3 4 4 4 4 3 3 3
0 0 0 0 1 2 2 1 2 2 2 1 1 0 0 -0 -0 -0 -1 -1 -1 -1 -1 -1 -0 -0 -0 -0 -1 -1 -0 0 1 1 2 3 4 4 4 4 4 4 4
0 0 0 1 2 2 2 2 1 2 2 2 1 1 0 -0 -0 -1 -1 -1 -1 -1 -1 -1 -1 -0 -0 -0 -1 -1 0 1 1 2 3 3 4 5 5 5 5 5 5
1 1 1 1 2 2 2 2 2 2 2 2 2 1 1 0 -0 -0 -0 -0 -0 -0 -0 -0 -0 -0 -0 -0 -0 -0 1 1 2 2 3 4 4 4 5 5 6 6 6
1 1 1 1 2 2 2 2 2 2 2 2 2 1 1 1 0 0 0 0 0 0 0 0 0 0 0 -0 -0 0 1 1 2 3 4 4 4 4 5 5 6 6 7